Groningen, Netherlands

12:50 PM CET on December 06, 2016 (GMT +0100)
Eelde

Weather History for EHGG - March, 2013

Change the Weather History Date:

Tuesday, March 12, 2013

  Actual Average Record
Temperature  
Mean Temperature 26 °F -  
Max Temperature 32 °F 47 °F 60 °F (2007)
Min Temperature 19 °F 34 °F 17 °F (2006)
Degree Days  
Heating Degree Days 38    
Moisture  
Dew Point 18 °F    
Average Humidity 68    
Maximum Humidity 93    
Minimum Humidity 48    
Precipitation  
Precipitation 0.00 in - - ()
Sea Level Pressure  
Sea Level Pressure 29.78 in    
Wind  
Wind Speed 10 mph ()    
Max Wind Speed 16 mph    
Max Gust Speed -    
Visibility 6.7 miles    
Events      
Averages and records for this station are not official NWS values.
T = Trace of Precipitation, MM = Missing Value Source: Averaged Metar Reports

Daily Weather History Graph

Daily Weather History Graph

Search for Another Location

Airport or City:

Trip Planner

Search our weather history database for the weather conditions in past years. The results will help you decide how hot, cold, wet, or windy it might be!

Date:

Astronomy

Mar. 12, 2013 Rise Set
Actual Time 6:55 AM CET 6:32 PM CET
Civil Twilight 6:20 AM CET 7:07 PM CET
Nautical Twilight 5:40 AM CET 7:47 PM CET
Astronomical Twilight 4:59 AM CET 8:29 PM CET
Moon 6:43 AM CET (3/12) 7:45 PM CET (3/12)
Length of Visible Light 12h 46m
Length of Day
11h 37m
New Moon, 0% of the Moon is Illuminated
Mar 12
New Moon
Mar 19
First Quarter
Mar 27
Full
Apr 3
Last Quarter
Apr 10
New

Hourly Weather History & Observations

Time (CET) Temp. Windchill Dew Point Humidity Pressure Visibility Wind Dir Wind Speed Gust Speed Precip Events Conditions
12:25 AM 24.8 °F 12.4 °F 19.4 °F 80% 29.86 in 6.2 mi NE 15.0 mph - N/A   Unknown
12:55 AM 24.8 °F 12.9 °F 19.4 °F 80% 29.86 in 6.2 mi ENE 13.8 mph - N/A   Unknown
1:00 AM 25 °F - 19 °F 71% 29.86 in 28 mi NE 15.7 mph - -   Partly Cloudy
1:25 AM 24.8 °F 13.4 °F 19.4 °F 80% 29.86 in 6.2 mi NE 12.7 mph - N/A   Unknown
1:55 AM 24.8 °F 13.4 °F 19.4 °F 80% 29.83 in 6.2 mi NE 12.7 mph - N/A   Unknown
2:25 AM 24.8 °F 12.9 °F 19.4 °F 80% 29.83 in 6.2 mi NE 13.8 mph - N/A   Unknown
2:55 AM 24.8 °F 13.4 °F 19.4 °F 80% 29.83 in 6.2 mi NE 12.7 mph - N/A   Unknown
3:25 AM 24.8 °F 13.4 °F 19.4 °F 80% 29.83 in 6.2 mi NE 12.7 mph - N/A   Unknown
3:55 AM 24.8 °F 13.4 °F 17.6 °F 74% 29.83 in 6.2 mi NE 12.7 mph - N/A   Unknown
4:00 AM 24 °F - 17 °F 67% 29.84 in 28 mi NE 11.2 mph - -   Scattered Clouds
4:25 AM 23.0 °F 11.7 °F 17.6 °F 80% 29.83 in 6.2 mi NE 11.5 mph - N/A   Unknown
4:55 AM 23.0 °F 12.4 °F 17.6 °F 80% 29.83 in 6.2 mi NE 10.4 mph - N/A   Unknown
5:25 AM 24.8 °F 14.0 °F 15.8 °F 69% 29.80 in 6.2 mi NE 11.5 mph - N/A   Unknown
5:55 AM 23.0 °F 11.1 °F 15.8 °F 74% 29.80 in 6.2 mi NE 12.7 mph - N/A   Unknown
6:25 AM 23.0 °F 12.4 °F 15.8 °F 74% 29.80 in 6.2 mi NE 10.4 mph - N/A   Unknown
6:55 AM 23.0 °F 12.4 °F 15.8 °F 74% 29.80 in 6.2 mi ENE 10.4 mph - N/A   Unknown
7:00 AM 24 °F - 16 °F 61% 29.82 in 28 mi NE 11.2 mph - -   Partly Cloudy
7:25 AM 23.0 °F 12.4 °F 15.8 °F 74% 29.80 in 6.2 mi NE 10.4 mph - N/A   Unknown
7:55 AM 24.8 °F 14.6 °F 15.8 °F 69% 29.80 in 6.2 mi NE 10.4 mph - N/A   Unknown
8:55 AM 26.6 °F 15.7 °F 15.8 °F 64% 29.80 in 6.2 mi ENE 12.7 mph - N/A   Unknown
9:25 AM 28.4 °F 16.6 °F 15.8 °F 59% 29.80 in 6.2 mi ENE 16.1 mph - N/A   Unknown
9:55 AM 28.4 °F 16.6 °F 15.8 °F 59% 29.80 in 6.2 mi NE 16.1 mph - N/A   Unknown
10:00 AM 28 °F - 16 °F 48% 29.82 in 19 mi NE 15.7 mph - -  
10:25 AM 28.4 °F 17.0 °F 15.8 °F 59% 29.80 in 6.2 mi NE 15.0 mph - N/A   Partly Cloudy
10:55 AM 28.4 °F 17.5 °F 17.6 °F 64% 29.80 in 6.2 mi NE 13.8 mph - N/A   Scattered Clouds
11:25 AM 28.4 °F 17.5 °F 15.8 °F 59% 29.80 in 6.2 mi ENE 13.8 mph - N/A   Unknown
11:55 AM 30.2 °F 19.8 °F 17.6 °F 60% 29.80 in 6.2 mi ENE 13.8 mph - N/A   Unknown
12:25 PM 30.2 °F 19.8 °F 17.6 °F 60% 29.77 in 6.2 mi ENE 13.8 mph - N/A   Unknown
12:55 PM 30.2 °F 21.3 °F 19.4 °F 64% 29.77 in 6.2 mi ENE 10.4 mph - N/A   Partly Cloudy
1:00 PM 31 °F - 19 °F 48% 29.79 in 19 mi NE 11.2 mph - -   Partly Cloudy
1:25 PM 30.2 °F 21.3 °F 17.6 °F 60% 29.77 in 6.2 mi NNE 10.4 mph - N/A   Partly Cloudy
1:55 PM 30.2 °F 21.9 °F 17.6 °F 60% 29.77 in 6.2 mi NE 9.2 mph - N/A   Partly Cloudy
2:25 PM 32.0 °F 24.2 °F 17.6 °F 55% 29.77 in 6.2 mi NNE 9.2 mph - N/A   Partly Cloudy
2:55 PM 32.0 °F 23.6 °F 17.6 °F 55% 29.74 in 6.2 mi NNE 10.4 mph - N/A   Unknown
3:25 PM 32.0 °F 24.2 °F 17.6 °F 55% 29.74 in 6.2 mi NE 9.2 mph - N/A   Unknown
3:55 PM 32.0 °F 23.6 °F 17.6 °F 55% 29.74 in 6.2 mi NNE 10.4 mph - N/A   Unknown
4:25 PM 32.0 °F 23.6 °F 19.4 °F 60% 29.74 in 6.2 mi NE 10.4 mph - N/A   Unknown
4:55 PM 32.0 °F 24.2 °F 15.8 °F 51% 29.74 in 6.2 mi NNE 9.2 mph - N/A   Unknown
5:25 PM 30.2 °F 22.6 °F 17.6 °F 60% 29.71 in 6.2 mi NE 8.1 mph - N/A   Unknown
5:55 PM 30.2 °F 22.6 °F 19.4 °F 64% 29.71 in 6.2 mi NNE 8.1 mph - N/A   Unknown
6:25 PM 30.2 °F 23.4 °F 19.4 °F 64% 29.71 in 6.2 mi NNE 6.9 mph - N/A   Unknown
6:55 PM 28.4 °F 21.2 °F 17.6 °F 64% 29.71 in 6.2 mi North 6.9 mph - N/A   Unknown
7:00 PM 29 °F - 17 °F 49% 29.74 in 28 mi North 6.7 mph - -   Partly Cloudy
7:25 PM 28.4 °F 22.2 °F 19.4 °F 69% 29.74 in 6.2 mi North 5.8 mph - N/A   Unknown
7:55 PM 28.4 °F 23.3 °F 17.6 °F 64% 29.74 in 6.2 mi North 4.6 mph - N/A   Unknown
8:25 PM 24.8 °F 20.5 °F 17.6 °F 74% 29.71 in 6.2 mi NNE 3.5 mph - N/A   Unknown
8:55 PM 24.8 °F - 15.8 °F 69% 29.71 in 6.2 mi Variable 1.2 mph - N/A   Unknown
9:25 PM 23.0 °F - 17.6 °F 80% 29.71 in 6.2 mi South 1.2 mph - N/A   Unknown
9:55 PM 23.0 °F - 17.6 °F 80% 29.71 in 6.2 mi WSW 2.3 mph - N/A   Unknown
10:00 PM 23 °F - 18 °F 73% 29.73 in 28 mi WSW 2.2 mph - -   Scattered Clouds
10:25 PM 23.0 °F - 19.4 °F 86% 29.71 in 6.2 mi WSW 2.3 mph - N/A   Unknown
10:55 PM 21.2 °F - 17.6 °F 86% 29.71 in 6.2 mi SSW 2.3 mph - N/A   Unknown
11:25 PM 23.0 °F - 19.4 °F 86% 29.71 in 6.2 mi Variable 1.2 mph - N/A   Unknown
11:55 PM 19.4 °F 14.3 °F 17.6 °F 93% 29.71 in 6.2 mi South 3.5 mph - N/A   Unknown